Rotterdam, Netherlands

5:39 AM CEST on June 28, 2017 (GMT +0200)
Rotterdam

Weather History for EHRD - June, 2013

Change the Weather History Date:

Friday, June 28, 2013

  Actual Average Record
Temperature  
Mean Temperature 58 °F -  
Max Temperature 62 °F 69 °F 89 °F (2011)
Min Temperature 53 °F 54 °F 44 °F (2000)
Degree Days  
Heating Degree Days 8    
Growing Degree Days 8 (Base 50)    
Moisture  
Dew Point 53 °F    
Average Humidity 86    
Maximum Humidity 100    
Minimum Humidity 66    
Precipitation  
Precipitation 0.00 in - - ()
Sea Level Pressure  
Sea Level Pressure 30.06 in    
Wind  
Wind Speed 8 mph ()    
Max Wind Speed 15 mph    
Max Gust Speed -    
Visibility 5.9 miles    
Events Rain    
Averages and records for this station are not official NWS values.
T = Trace of Precipitation, MM = Missing Value Source: Averaged Metar Reports

Daily Weather History Graph

Daily Weather History Graph

Search for Another Location

Airport or City:

Trip Planner

Search our weather history database for the weather conditions in past years. The results will help you decide how hot, cold, wet, or windy it might be!

Date:

Astronomy

Jun. 28, 2013 Rise Set
Actual Time 5:24 AM CEST 10:05 PM CEST
Civil Twilight 4:36 AM CEST 10:54 PM CEST
Nautical Twilight 3:19 AM CEST 12:10 AM CEST
Astronomical Twilight 2:17 AM CEST 1:13 AM CEST
Moon 12:11 AM CEST 12:02 PM CEST
Length of Visible Light 18h 17m
Length of Day
16h 40m
Waning Gibbous, 69% of the Moon is Illuminated
Jun 28
Waning Gibbous
Jun 30
Last Quarter
Jul 8
New
Jul 16
First Quarter
Jul 22
Full

Hourly Weather History & Observations

Time (CEST) Temp. Dew Point Humidity Pressure Visibility Wind Dir Wind Speed Gust Speed Precip Events Conditions
12:25 AM 57.2 °F 50.0 °F 77% 30.12 in 6.2 mi SW 10.4 mph - N/A   Scattered Clouds
12:55 AM 57.2 °F 51.8 °F 82% 30.12 in 6.2 mi SW 12.7 mph - N/A   Overcast
1:25 AM 57.2 °F 53.6 °F 88% 30.09 in 6.2 mi SW 15.0 mph - N/A   Light Drizzle
1:55 AM 55.4 °F 53.6 °F 94% 30.09 in 5.0 mi WSW 9.2 mph - N/A   Light Drizzle
2:00 AM 56 °F 53 °F 86% 30.12 in 5 mi WSW 8.9 mph - - Rain Light Rain
2:25 AM 57.2 °F 53.6 °F 88% 30.09 in 5.0 mi WSW 5.8 mph - N/A Rain Light Rain
2:55 AM 57.2 °F 53.6 °F 88% 30.09 in 5.6 mi West 5.8 mph - N/A   Mostly Cloudy
3:25 AM 55.4 °F 51.8 °F 88% 30.09 in 6.2 mi West 5.8 mph - N/A   Overcast
3:55 AM 55.4 °F 51.8 °F 88% 30.06 in 6.2 mi West 6.9 mph - N/A   Mostly Cloudy
4:25 AM 55.4 °F 51.8 °F 88% 30.06 in 6.2 mi West 5.8 mph - N/A   Overcast
4:55 AM 55.4 °F 51.8 °F 88% 30.06 in 6.2 mi West 4.6 mph - N/A Rain Light Rain
5:00 AM 55 °F 52 °F 86% 30.09 in 7 mi West 4.5 mph - - Rain Light Drizzle
5:25 AM 55.4 °F 51.8 °F 88% 30.06 in 6.2 mi West 4.6 mph - N/A   Overcast
5:55 AM 53.6 °F 51.8 °F 94% 30.06 in 6.2 mi West 3.5 mph - N/A   Mostly Cloudy
6:25 AM 53.6 °F 51.8 °F 94% 30.06 in 6.2 mi WSW 4.6 mph - N/A   Partly Cloudy
6:55 AM 55.4 °F 51.8 °F 88% 30.06 in 6.2 mi West 5.8 mph - N/A Rain Light Rain
7:25 AM 55.4 °F 51.8 °F 88% 30.06 in 6.2 mi West 4.6 mph - N/A   Mostly Cloudy
7:55 AM 55.4 °F 51.8 °F 88% 30.06 in 6.2 mi WSW 5.8 mph - N/A   Overcast
8:00 AM 55 °F 52 °F 85% 30.08 in 7 mi West 4.5 mph - - Rain Rain
8:25 AM 55.4 °F 51.8 °F 88% 30.06 in 6.2 mi WSW 5.8 mph - N/A   Overcast
8:55 AM 55.4 °F 53.6 °F 94% 30.06 in 4.3 mi WSW 6.9 mph - N/A   Drizzle
9:25 AM 55.4 °F 53.6 °F 94% 30.06 in 4.3 mi West 5.8 mph - N/A   Overcast
9:55 AM 57.2 °F 51.8 °F 82% 30.06 in 5.0 mi WSW 8.1 mph - N/A   Overcast
10:25 AM 57.2 °F 51.8 °F 82% 30.06 in 5.0 mi West 9.2 mph - N/A   Overcast
10:55 AM 55.4 °F 53.6 °F 94% 30.06 in 4.3 mi West 10.4 mph - N/A   Overcast
11:00 AM 56 °F 53 °F 88% 30.09 in 4 mi West 6.7 mph - - Rain Rain
11:25 AM 57.2 °F 53.6 °F 88% 30.06 in 5.0 mi WSW 9.2 mph - N/A   Overcast
11:55 AM 57.2 °F 53.6 °F 88% 30.06 in 6.2 mi West 9.2 mph - N/A Rain Light Rain
12:25 PM 57.2 °F 53.6 °F 88% 30.06 in 6.2 mi West 10.4 mph - N/A Rain Light Rain
12:55 PM 57.2 °F 53.6 °F 88% 30.06 in 6.2 mi West 10.4 mph - N/A   Overcast
1:25 PM 59.0 °F 51.8 °F 77% 30.06 in 6.2 mi West 11.5 mph - N/A   Overcast
1:55 PM 59.0 °F 51.8 °F 77% 30.09 in 6.2 mi West 9.2 mph - N/A   Overcast
2:00 PM 58 °F 53 °F 78% 30.09 in 12 mi West 11.2 mph - - Rain Light Rain
2:25 PM 59.0 °F 53.6 °F 82% 30.06 in 6.2 mi WSW 9.2 mph - N/A   Drizzle
2:55 PM 60.8 °F 53.6 °F 77% 30.06 in 6.2 mi WSW 9.2 mph - N/A   Overcast
3:25 PM 62.6 °F 53.6 °F 72% 30.06 in 6.2 mi WSW 11.5 mph - N/A   Mostly Cloudy
3:55 PM 60.8 °F 51.8 °F 72% 30.06 in 6.2 mi WSW 9.2 mph - N/A   Mostly Cloudy
4:25 PM 62.6 °F 51.8 °F 68% 30.06 in 6.2 mi WSW 11.5 mph - N/A   Scattered Clouds
4:55 PM 60.8 °F 51.8 °F 72% 30.06 in 6.2 mi West 10.4 mph - N/A   Mostly Cloudy
5:00 PM 61 °F 53 °F 66% 30.07 in 19 mi West 11.2 mph - -   Partly Cloudy
5:25 PM 60.8 °F 51.8 °F 72% 30.06 in 6.2 mi West 10.4 mph - N/A   Mostly Cloudy
5:55 PM 59.0 °F 51.8 °F 77% 30.06 in 6.2 mi WSW 9.2 mph - N/A   Overcast
6:25 PM 60.8 °F 51.8 °F 72% 30.06 in 6.2 mi West 11.5 mph - N/A   Overcast
6:55 PM 59.0 °F 51.8 °F 77% 30.04 in 6.2 mi WSW 13.8 mph - N/A Rain Light Rain
7:25 PM 59.0 °F 53.6 °F 82% 30.04 in 6.2 mi WSW 12.7 mph - N/A   Mostly Cloudy
7:55 PM 57.2 °F 55.4 °F 94% 30.04 in 3.7 mi SW 10.4 mph - N/A   Drizzle
8:00 PM 57 °F 55 °F 90% 30.05 in 4 mi SW 8.9 mph - - Rain Drizzle
8:25 PM 57.2 °F 55.4 °F 94% 30.04 in 5.6 mi SW 11.5 mph - N/A   Drizzle
8:55 PM 57.2 °F 55.4 °F 94% 30.01 in 5.0 mi SW 12.7 mph - N/A   Drizzle
9:25 PM 57.2 °F 57.2 °F 100% 30.01 in - SW 11.5 mph - N/A Rain Light Rain
9:55 PM 59.0 °F 57.2 °F 94% 30.01 in 3.7 mi SW 11.5 mph - N/A Rain Rain
10:25 PM 57.2 °F 57.2 °F 100% 30.01 in - SSW 11.5 mph - N/A Rain Rain
10:55 PM 57.2 °F 57.2 °F 100% 29.98 in 3.1 mi SSW 11.5 mph - N/A Rain Light Rain
11:00 PM 58 °F 57 °F 95% 30.00 in 3 mi SSW 11.2 mph - - Rain Light Rain
11:25 PM 59.0 °F 57.2 °F 94% 29.98 in 3.7 mi SW 11.5 mph - N/A Rain Light Rain
11:55 PM 59.0 °F 59.0 °F 100% 29.98 in 3.7 mi SW 11.5 mph - N/A Rain Rain